Location: Altleiningen
(49.5078°N, 8.0741°E)
Time: 23:17:04
(UTC+00:00)

Gbstr 26 Del rocket - Pass Details

Date: 03 March 2021
Orbit: 492 x 1264 km, 51.8° (Epoch: 13 April)

Event Time Altitude Azimuth Distance (km) Brightness Sun altitude
Rises 19:54:15 0° 283° (WNW) 2,922 7.8 -26.4°
Reaches altitude 10° 19:56:22 10° 285° (WNW) 2,106 6.8 -26.7°
Enters shadow 20:01:10 76° 3° (N) 806 3.5 -27.4°
